Temperature
17 17 16 16 16 16 16 16 16 16 15 14 14 14 13 13 13 13 13 13 13 13 13 13 13 13 13 13 13 13 13 13 13 12 12 12 12 12
17 17 16 16 16 16 16 16 16 16 15 15 14 14 13 13 13 13 13 13 13 13 13 13 13 13 13 13 13 12 12 12 12 12 12 12 12 12
16 16 16 16 16 16 15 15 15 15 15 14 14 14 13 13 13 12 12 12 12 13 12 12 12 12 12 12 12 12 12 12 12 12 12 11 11 11
16 16 16 16 16 16 15 15 15 15 15 14 14 13 13 13 13 12 12 12 12 12 12 12 12 12 12 12 12 12 11 11 11 11 11 11 11 11
16 16 16 16 16 15 15 15 15 15 14 14 14 13 13 13 12 12 12 12 12 12 12 12 12 12 11 11 11 11 11 11 11 11 11 10 10 10
16 16 16 16 15 15 15 15 15 14 14 14 14 13 13 13 12 12 12 12 12 12 11 11 11 11 11 11 11 11 11 10 10 10 10 10 10 10
16 16 16 16 16 15 15 15 14 14 14 14 14 13 13 13 12 12 12 12 12 11 11 11 11 11 11 11 11 11 10 10 10 10 10 10 10 9
16 15 15 15 15 15 15 15 14 14 14 14 14 13 13 13 12 12 12 12 12 11 11 11 11 11 11 11 11 10 10 10 10 10 10 9 9 9
15 15 15 15 15 15 15 14 14 14 14 14 14 13 13 13 12 12 12 12 12 12 11 11 11 11 11 11 11 10 10 10 10 10 9 9 9 9
15 15 15 15 15 15 14 14 14 14 13 13 13 13 13 12 12 12 12 12 11 11 11 11 11 11 11 10 11 10 10 10 10 10 9 9 9 9
15 15 15 14 15 15 14 14 13 13 13 13 13 13 13 13 12 12 11 12 12 11 11 11 11 11 11 11 10 10 10 10 10 9 9 9 9 9
15 15 15 14 14 14 14 13 13 13 13 13 13 13 12 12 12 12 12 12 12 12 11 11 11 11 11 11 10 10 10 10 10 9 9 9 9 9
14 14 14 14 14 14 14 13 13 13 12 12 12 12 12 12 12 12 11 11 11 12 11 11 11 11 11 11 10 10 10 10 9 9 9 9 9 8
14 14 14 14 14 14 13 13 13 13 12 12 12 12 12 12 11 11 11 11 11 11 11 10 11 10 11 11 10 10 10 9 9 9 9 9 9 8
13 13 13 13 13 13 13 13 13 12 12 12 12 12 12 12 11 11 11 11 11 11 10 10 10 10 10 10 10 10 10 9 9 9 9 9 8 8
13 13 13 13 13 13 13 12 12 12 12 12 12 12 11 11 11 11 11 11 11 10 10 10 10 10 10 10 10 10 10 9 9 9 9 9 8 8
13 13 13 12 12 12 12 12 12 11 11 11 11 11 11 11 11 11 10 11 11 10 10 10 10 10 9 9 9 10 10 9 9 9 9 9 8 8
13 12 12 12 12 12 12 12 12 11 11 11 11 11 11 11 11 10 10 10 10 10 10 10 10 9 9 9 9 9 9 9 9 9 9 9 8 8
13 12 12 12 12 12 12 12 12 11 11 11 11 11 11 11 11 10 10 10 10 10 10 10 10 9 9 9 9 9 9 9 9 9 9 9 9 8
12 12 12 12 12 12 12 11 11 11 11 11 11 10 10 10 10 10 10 10 10 10 10 10 10 9 9 9 9 9 9 9 9 8 9 8 8 8
12 12 12 12 12 11 11 11 11 11 11 10 10 10 10 10 10 10 10 10 10 10 10 10 9 9 9 9 9 9 9 9 8 8 8 8 8 8
12 12 12 12 11 11 11 11 11 11 11 10 10 10 10 10 10 10 10 10 10 9 10 9 9 9 9 9 9 9 9 8 8 8 8 8 8 8
12 11 11 11 11 11 11 11 11 11 11 10 10 10 10 10 10 10 9 9 9 9 9 9 9 9 9 9 9 9 9 8 8 8 8 8 8 8
Wind_Speed
2 2 2 1 2 2 2 3 3 2 2 3 3 3 4 4 4 6 6 8 8 8 8 8 9 9 10 10 10 10 10 9 9 9 9 9 9 9
1 1 2 2 2 2 2 3 3 3 1 3 3 4 3 4 5 5 6 8 8 7 7 7 8 8 9 9 10 9 9 8 8 8 9 9 9 9
1 2 2 1 2 2 3 3 2 2 3 3 3 4 4 3 4 4 4 4 7 7 7 7 7 7 8 8 8 9 9 9 9 9 8 8 9 9
1 2 2 2 2 2 2 2 2 2 3 4 4 4 4 4 4 3 3 4 5 8 7 7 6 6 6 7 7 7 8 8 9 9 9 8 8 8
2 2 2 2 2 2 2 2 2 3 3 4 5 4 4 4 4 3 3 2 4 7 9 8 6 6 5 6 6 6 7 7 7 7 7 7 7 7
2 2 2 2 1 2 2 3 3 3 4 5 5 5 4 4 4 4 3 3 3 4 4 6 8 8 7 6 6 6 6 6 6 6 6 6 6 6
3 2 2 3 4 1 0 2 3 3 4 4 5 4 4 4 4 3 3 3 3 3 3 4 6 6 7 8 7 7 7 7 6 6 6 6 6 6
2 2 3 4 4 3 3 3 1 3 3 4 4 4 5 5 4 4 3 3 3 3 3 3 3 3 4 5 8 9 9 8 8 7 7 6 6 6
2 2 2 3 4 3 4 3 2 1 1 3 3 4 4 4 4 5 4 4 2 3 4 3 3 3 4 5 10 10 10 10 9 9 8 7 7 8
2 2 2 2 2 2 3 4 4 3 3 4 3 3 3 3 5 5 4 4 3 3 4 4 3 3 3 5 11 11 11 10 10 9 9 8 8 8
3 3 3 3 3 1 3 4 3 3 4 3 1 1 1 3 3 4 4 5 4 4 4 4 3 3 3 4 8 13 12 12 12 11 11 10 9 9
4 4 3 2 4 3 4 4 4 4 3 4 4 5 6 6 7 6 5 5 4 4 3 4 4 3 4 4 4 7 9 12 14 14 13 13 11 9
4 4 3 6 4 4 5 4 3 3 4 5 5 5 5 5 6 6 5 5 5 4 3 4 4 4 4 3 4 5 6 6 9 11 14 14 14 11
3 3 3 7 5 5 5 3 3 5 5 5 5 5 5 5 5 5 6 6 5 5 3 4 4 4 5 5 4 4 5 6 6 7 8 12 14 15
2 2 3 6 7 6 7 6 6 6 6 5 5 5 5 4 4 5 6 6 6 6 5 6 6 5 6 6 5 4 4 5 6 6 6 7 7 8
4 3 6 7 6 4 5 7 6 5 5 5 5 4 4 5 5 5 5 5 5 5 6 7 7 7 6 6 5 5 5 5 5 6 6 6 7 8
4 4 5 5 5 5 5 5 5 5 5 5 5 5 5 5 5 5 5 6 6 6 5 5 7 7 7 6 6 6 5 6 5 5 5 6 6 7
4 5 6 6 6 6 6 6 6 6 6 6 6 5 6 6 6 5 6 7 7 7 6 5 5 5 6 6 7 7 6 6 5 5 6 6 6 6
6 6 6 6 6 6 6 6 6 6 6 6 6 6 6 6 6 6 6 6 6 7 6 6 6 6 7 7 6 9 7 6 6 6 6 7 6 5
6 7 7 7 7 7 7 7 6 6 6 6 7 7 7 7 7 7 7 7 7 7 7 6 6 7 8 8 6 5 11 8 6 6 6 6 6 5
7 7 7 7 7 7 7 7 7 7 6 6 7 8 8 7 7 7 7 7 8 8 8 7 6 7 7 6 6 6 5 11 9 6 6 6 6 6
7 7 7 7 7 7 7 7 7 7 7 7 7 7 7 8 8 9 8 8 8 8 9 6 5 5 6 7 8 7 5 5 9 11 9 9 7 6
7 7 7 7 7 7 7 8 8 8 8 8 8 8 8 8 8 8 8 8 7 7 7 6 5 5 7 8 8 7 7 6 5 7 8 12 14 12
Wind_Direction
222 220 245 222 215 230 214 215 225 209 175 163 156 130 127 106 107 101 93 90 87 82 79 79 79 79 79 81 83 85 89 91 91 94 94 96 97 97
242 236 236 210 200 210 211 221 236 231 211 154 147 138 131 129 122 111 108 113 100 94 89 86 84 83 85 86 86 87 88 92 98 103 100 97 98 96
221 202 216 223 214 202 207 215 214 210 178 150 136 134 147 141 132 134 131 126 111 110 107 101 95 91 92 93 92 91 89 91 95 100 102 101 100 99
204 196 200 185 194 227 216 207 199 194 183 162 155 157 164 158 154 165 143 132 128 127 131 122 113 107 105 106 102 101 97 95 94 96 97 99 101 100
197 191 190 180 194 187 215 202 195 181 170 168 167 160 167 164 166 166 153 158 154 145 153 150 141 134 129 126 124 120 116 112 108 107 107 106 107 104
183 173 169 178 172 187 199 199 189 176 174 176 168 167 165 170 187 181 177 187 187 163 154 158 160 164 158 155 153 149 145 140 135 131 128 127 125 123
158 151 130 88 54 20 247 173 178 190 183 177 172 172 172 180 196 196 189 192 187 193 180 175 172 177 171 173 175 174 171 169 166 161 157 153 149 144
149 149 148 135 118 97 52 52 59 199 190 187 188 186 189 199 202 211 210 214 200 186 204 196 189 192 183 174 166 176 183 185 185 182 179 175 172 167
166 184 186 138 158 156 147 163 161 16 270 236 205 204 196 200 209 219 220 233 232 185 209 214 207 215 198 166 165 181 189 193 195 194 192 191 191 190
177 182 184 166 163 171 175 175 186 186 206 225 220 227 221 205 217 230 229 223 223 205 213 236 214 223 213 176 174 187 196 200 201 202 203 205 206 205
188 186 194 179 121 238 196 188 192 189 166 155 158 178 150 185 227 227 216 222 227 211 208 244 236 235 231 212 184 187 196 203 206 207 209 210 213 215
189 187 164 163 148 205 208 201 202 205 198 182 184 191 198 196 204 225 227 231 234 223 192 233 239 241 241 228 205 192 202 205 207 209 210 211 212 226
204 199 167 145 169 211 238 220 212 226 219 215 211 203 201 202 205 211 229 242 246 248 198 211 241 238 246 241 221 219 216 213 211 214 212 213 214 221
226 214 150 153 187 215 227 212 203 233 232 224 224 222 218 218 214 215 222 239 257 268 258 230 247 249 251 255 243 226 227 223 221 223 218 206 212 221
229 93 132 175 197 208 208 213 213 224 230 229 234 235 231 226 223 215 216 223 236 242 231 229 245 249 253 260 259 244 238 233 227 228 222 211 213 215
229 182 183 196 219 223 204 212 223 228 233 235 238 240 235 225 224 225 225 218 224 224 221 225 236 250 252 257 262 257 246 239 230 231 228 221 217 220
204 209 209 205 212 220 221 220 223 220 227 237 242 242 238 235 232 229 229 231 234 232 222 218 222 232 249 260 258 254 250 247 236 224 225 229 225 223
200 221 221 221 224 226 228 226 223 223 227 231 234 239 240 238 235 229 229 233 235 238 236 227 223 229 239 239 245 257 255 255 247 222 227 234 238 226
210 230 233 233 234 232 231 233 234 228 226 232 236 239 243 243 239 236 233 237 242 243 242 236 229 234 246 252 233 223 248 255 252 240 232 236 243 236
226 236 238 237 238 239 237 236 238 234 228 233 238 241 242 245 243 240 237 238 242 243 245 241 236 240 249 260 263 238 215 236 244 246 246 240 240 224
231 236 241 243 242 240 240 237 236 237 236 237 239 241 242 242 243 244 244 237 245 246 245 244 242 240 254 261 261 257 226 211 230 247 251 249 245 236
246 247 247 250 249 247 243 240 238 237 238 237 241 242 241 241 240 241 245 244 241 245 252 251 230 232 241 251 258 261 253 223 219 224 236 245 251 249
249 252 253 251 250 247 245 243 241 241 240 242 242 242 241 240 241 243 245 247 248 248 251 250 245 240 242 245 252 257 256 245 237 224 227 228 234 245
Height
1547 1547 1547 1547 1547 1547 1548 1548 1550 1550 1550 1550 1551 1550 1550 1550 1549 1549 1548 1547 1546 1546 1545 1544 1543 1543 1542 1542 1541 1540 1540 1539 1539 1539 1539 1540 1540 1540
1545 1545 1545 1546 1546 1546 1546 1547 1547 1548 1548 1549 1549 1550 1549 1550 1548 1548 1548 1547 1546 1546 1545 1545 1544 1543 1542 1542 1541 1541 1540 1539 1538 1538 1538 1539 1539 1539
1544 1544 1544 1544 1544 1544 1544 1545 1546 1546 1547 1547 1548 1548 1548 1548 1548 1548 1548 1547 1546 1546 1545 1545 1544 1543 1543 1542 1542 1541 1540 1539 1538 1538 1538 1538 1538 1538
1543 1543 1543 1543 1542 1543 1543 1544 1544 1544 1545 1545 1546 1546 1546 1547 1547 1547 1548 1548 1547 1545 1545 1544 1544 1543 1543 1542 1542 1541 1541 1540 1539 1538 1538 1538 1538 1538
1541 1541 1541 1541 1541 1541 1541 1542 1543 1543 1544 1544 1545 1545 1546 1546 1546 1546 1547 1546 1547 1545 1544 1544 1544 1543 1543 1542 1542 1541 1541 1540 1540 1539 1539 1539 1538 1538
1539 1539 1539 1540 1539 1540 1540 1540 1541 1541 1542 1543 1544 1544 1544 1545 1545 1545 1546 1546 1546 1546 1544 1544 1543 1543 1542 1542 1541 1541 1541 1540 1540 1540 1539 1539 1539 1538
1537 1538 1538 1538 1537 1538 1539 1539 1539 1540 1541 1542 1542 1543 1543 1543 1544 1544 1544 1544 1544 1544 1544 1543 1543 1542 1541 1541 1540 1540 1540 1540 1539 1539 1539 1538 1538 1538
1535 1537 1537 1537 1536 1536 1536 1537 1538 1538 1539 1540 1540 1541 1541 1542 1542 1542 1543 1543 1543 1543 1542 1542 1542 1541 1541 1540 1539 1538 1538 1538 1538 1538 1538 1538 1537 1537
1534 1536 1537 1536 1536 1535 1535 1535 1536 1536 1537 1538 1539 1539 1539 1539 1539 1540 1540 1540 1540 1540 1540 1540 1540 1540 1539 1538 1537 1537 1537 1536 1536 1536 1536 1536 1536 1536
1534 1534 1534 1534 1535 1534 1535 1535 1535 1535 1535 1536 1536 1537 1537 1537 1537 1538 1538 1538 1538 1538 1538 1538 1538 1538 1537 1536 1535 1535 1535 1534 1534 1534 1534 1534 1534 1534
1532 1532 1532 1533 1532 1533 1533 1533 1533 1533 1534 1533 1534 1534 1534 1534 1535 1535 1536 1536 1536 1536 1535 1536 1536 1535 1535 1534 1533 1533 1533 1532 1532 1532 1532 1532 1532 1532
1530 1530 1530 1530 1530 1531 1531 1531 1532 1532 1532 1532 1531 1531 1532 1532 1532 1532 1533 1533 1533 1533 1532 1533 1533 1533 1533 1532 1532 1531 1530 1530 1530 1530 1529 1529 1529 1529
1528 1528 1528 1527 1528 1528 1529 1529 1529 1529 1530 1530 1530 1530 1529 1529 1529 1529 1529 1530 1530 1530 1530 1529 1529 1530 1530 1529 1529 1528 1528 1527 1527 1526 1526 1526 1526 1526
1525 1526 1525 1525 1525 1526 1526 1526 1526 1526 1527 1527 1528 1528 1527 1527 1526 1526 1526 1526 1526 1526 1526 1526 1526 1526 1526 1525 1525 1525 1524 1524 1523 1523 1523 1523 1522 1522
1522 1522 1522 1522 1522 1523 1522 1522 1523 1523 1524 1524 1524 1524 1524 1524 1523 1523 1522 1522 1522 1522 1522 1522 1522 1522 1522 1522 1521 1521 1520 1520 1520 1519 1519 1519 1519 1518
1518 1518 1518 1519 1519 1519 1519 1519 1519 1519 1519 1520 1520 1520 1520 1520 1520 1519 1519 1519 1518 1518 1518 1518 1517 1518 1518 1518 1518 1517 1516 1516 1516 1515 1515 1515 1515 1515
1513 1514 1515 1515 1515 1515 1516 1515 1515 1515 1515 1515 1516 1516 1516 1516 1516 1516 1515 1515 1515 1514 1514 1514 1513 1513 1513 1514 1513 1513 1512 1512 1512 1511 1511 1511 1511 1511
1509 1510 1511 1511 1511 1511 1512 1512 1511 1511 1511 1511 1511 1511 1511 1511 1511 1511 1511 1511 1511 1510 1510 1510 1510 1509 1509 1508 1509 1508 1508 1508 1508 1507 1507 1507 1507 1507
1505 1506 1507 1507 1507 1507 1507 1507 1507 1507 1506 1507 1507 1507 1507 1507 1506 1506 1506 1506 1506 1506 1506 1506 1505 1505 1504 1503 1503 1503 1503 1503 1503 1503 1502 1502 1502 1503
1501 1502 1502 1503 1503 1503 1503 1503 1503 1502 1502 1502 1502 1501 1501 1501 1501 1501 1501 1501 1501 1501 1501 1501 1500 1500 1499 1499 1499 1498 1498 1498 1498 1498 1498 1498 1498 1498
1498 1498 1498 1498 1498 1498 1498 1497 1497 1497 1497 1497 1496 1496 1496 1496 1496 1496 1496 1496 1496 1496 1495 1495 1495 1495 1495 1495 1494 1493 1493 1492 1492 1493 1493 1493 1493 1493
1493 1493 1493 1493 1493 1493 1493 1492 1492 1492 1492 1491 1491 1491 1491 1490 1490 1490 1490 1490 1490 1490 1490 1490 1490 1490 1490 1490 1489 1488 1488 1488 1487 1487 1488 1488 1488 1488
1488 1488 1488 1488 1488 1487 1487 1487 1487 1486 1486 1486 1485 1485 1485 1485 1485 1485 1485 1485 1485 1485 1485 1485 1485 1485 1484 1484 1484 1484 1484 1483 1483 1482 1482 1482 1483 1484